Time,TemperatureF,DewpointF,PressureIn,WindDirection,WindDirectionDegrees,WindSpeedMPH,WindSpeedGustMPH,Humidity,HourlyPrecipIn,Conditions,Clouds,dailyrainin,SolarRadiationWatts/m^2,SoftwareType,DateUTC
2013-08-22 00:04:00,70.0,70.0,-100.00,SW,227,0.0,0.0,100,0.00,,,0.18,0.000000,,2013-08-22 04:04:00,
2013-08-22 00:44:00,69.0,69.0,-100.00,South,180,0.0,0.0,100,0.00,,,0.18,0.000000,,2013-08-22 04:44:00,
2013-08-22 00:54:00,69.0,69.0,-100.00,South,180,0.0,0.0,100,0.00,,,0.18,0.000000,,2013-08-22 04:54:00,
2013-08-22 01:03:00,69.0,69.0,-100.00,South,180,0.0,0.0,100,0.00,,,0.18,0.000000,,2013-08-22 05:03:00,
2013-08-22 01:43:00,68.0,68.0,-100.00,SSW,197,0.0,0.0,100,0.00,,,0.18,0.000000,,2013-08-22 05:43:00,
2013-08-22 01:53:00,68.0,68.0,-100.00,SSW,197,0.0,0.0,100,0.00,,,0.18,0.000000,,2013-08-22 05:53:00,
2013-08-22 02:02:00,68.0,68.0,-100.00,SSW,197,0.0,0.0,100,0.00,,,0.18,0.000000,,2013-08-22 06:02:00,
2013-08-22 02:42:00,69.0,69.0,-100.00,South,186,0.0,0.0,100,0.00,,,0.18,0.000000,,2013-08-22 06:42:00,
2013-08-22 02:52:00,69.0,69.0,-100.00,South,186,0.0,0.0,100,0.00,,,0.18,0.000000,,2013-08-22 06:52:00,
2013-08-22 03:02:00,69.0,69.0,-100.00,South,186,0.0,0.0,100,0.00,,,0.18,0.000000,,2013-08-22 07:02:00,
2013-08-22 03:42:00,70.0,70.0,-100.00,SSW,197,0.0,0.0,100,0.00,,,0.18,0.000000,,2013-08-22 07:42:00,
2013-08-22 03:53:00,70.0,70.0,-100.00,SSW,197,0.0,0.0,100,0.00,,,0.18,0.000000,,2013-08-22 07:53:00,
2013-08-22 04:03:00,70.0,70.0,-100.00,SSW,197,0.0,0.0,100,0.00,,,0.18,0.000000,,2013-08-22 08:03:00,
2013-08-22 04:43:00,69.0,69.0,-100.00,South,186,0.0,0.0,100,0.00,,,0.18,0.000000,,2013-08-22 08:43:00,
2013-08-22 04:53:00,69.0,69.0,-100.00,South,186,0.0,0.0,100,0.00,,,0.18,0.000000,,2013-08-22 08:53:00,
2013-08-22 05:01:00,69.0,69.0,-100.00,South,186,0.0,0.0,100,0.00,,,0.18,0.000000,,2013-08-22 09:01:00,
2013-08-22 05:43:00,69.0,69.0,-100.00,SSW,203,0.0,0.0,100,0.00,,,0.18,0.000000,,2013-08-22 09:43:00,
2013-08-22 05:54:00,69.0,69.0,-100.00,SSW,203,0.0,0.0,100,0.00,,,0.18,0.000000,,2013-08-22 09:54:00,
2013-08-22 06:04:00,69.0,69.0,-100.00,SSW,203,0.0,0.0,100,0.00,,,0.18,0.000000,,2013-08-22 10:04:00,
2013-08-22 06:05:00,68.0,68.0,-100.00,SSW,202,0.0,0.0,100,0.00,,,0.18,0.000000,,2013-08-22 10:05:00,
2013-08-22 06:42:00,68.0,68.0,-100.00,SSW,202,0.0,0.0,100,0.00,,,0.18,0.000000,,2013-08-22 10:42:00,
2013-08-22 08:42:00,70.0,70.0,-100.00,SE,146,0.0,0.0,100,0.00,,,0.18,21.000000,,2013-08-22 12:42:00,
2013-08-22 08:52:00,70.0,70.0,-100.00,SE,146,0.0,0.0,100,0.00,,,0.18,21.000000,,2013-08-22 12:52:00,
2013-08-22 09:02:00,70.0,70.0,-100.00,SE,146,0.0,0.0,100,0.00,,,0.18,21.000000,,2013-08-22 13:02:00,
2013-08-22 09:42:00,72.0,72.0,-100.00,ESE,119,0.0,0.0,100,0.00,,,0.18,96.000000,,2013-08-22 13:42:00,
2013-08-22 09:52:00,72.0,72.0,-100.00,ESE,119,0.0,0.0,100,0.00,,,0.18,96.000000,,2013-08-22 13:52:00,
2013-08-22 10:02:00,72.0,72.0,-100.00,ESE,119,0.0,0.0,100,0.00,,,0.18,96.000000,,2013-08-22 14:02:00,
2013-08-22 10:42:00,76.0,71.0,-100.00,South,181,0.0,0.0,85,0.00,,,0.18,230.000000,,2013-08-22 14:42:00,
2013-08-22 10:52:00,76.0,71.0,-100.00,South,181,0.0,0.0,85,0.00,,,0.18,230.000000,,2013-08-22 14:52:00,
2013-08-22 11:02:00,76.0,71.0,-100.00,South,181,0.0,0.0,85,0.00,,,0.18,230.000000,,2013-08-22 15:02:00,
2013-08-22 11:05:00,77.0,71.0,-100.00,North,357,0.0,0.0,83,0.00,,,0.18,313.000000,,2013-08-22 15:05:00,
2013-08-22 11:44:00,77.0,71.0,-100.00,North,357,0.0,0.0,83,0.00,,,0.18,313.000000,,2013-08-22 15:44:00,
2013-08-22 11:55:00,77.0,71.0,-100.00,North,357,0.0,0.0,83,0.00,,,0.18,313.000000,,2013-08-22 15:55:00,
2013-08-22 12:44:00,81.0,71.0,-100.00,West,278,0.0,0.0,72,0.00,,,0.18,469.000000,,2013-08-22 16:44:00,
2013-08-22 12:54:00,81.0,71.0,-100.00,West,278,0.0,0.0,72,0.00,,,0.18,469.000000,,2013-08-22 16:54:00,
2013-08-22 13:02:00,81.0,71.0,-100.00,West,278,0.0,0.0,72,0.00,,,0.18,469.000000,,2013-08-22 17:02:00,
2013-08-22 13:43:00,82.0,70.0,-100.00,ENE,62,0.0,0.0,67,0.00,,,0.18,549.000000,,2013-08-22 17:43:00,
2013-08-22 13:53:00,82.0,70.0,-100.00,ENE,62,0.0,0.0,67,0.00,,,0.18,549.000000,,2013-08-22 17:53:00,
2013-08-22 14:02:00,82.0,70.0,-100.00,ENE,62,0.0,0.0,67,0.00,,,0.18,549.000000,,2013-08-22 18:02:00,
2013-08-22 14:43:00,85.0,70.0,-100.00,NE,51,0.0,0.0,62,0.00,,,0.18,660.000000,,2013-08-22 18:43:00,
2013-08-22 14:52:00,85.0,70.0,-100.00,NE,51,0.0,0.0,62,0.00,,,0.18,660.000000,,2013-08-22 18:52:00,
2013-08-22 15:02:00,85.0,70.0,-100.00,NE,51,0.0,0.0,62,0.00,,,0.18,660.000000,,2013-08-22 19:02:00,
2013-08-22 15:42:00,85.0,69.0,-100.00,NNE,13,0.0,0.0,59,0.00,,,0.18,630.000000,,2013-08-22 19:42:00,
2013-08-22 15:53:00,85.0,69.0,-100.00,NNE,13,0.0,0.0,59,0.00,,,0.18,630.000000,,2013-08-22 19:53:00,
2013-08-22 16:02:00,85.0,69.0,-100.00,NNE,13,0.0,0.0,59,0.00,,,0.18,630.000000,,2013-08-22 20:02:00,
2013-08-22 16:42:00,87.0,69.0,-100.00,NNE,20,0.0,0.0,55,0.00,,,0.04,611.000000,,2013-08-22 20:42:00,
2013-08-22 16:52:00,87.0,69.0,-100.00,NNE,20,0.0,0.0,55,0.00,,,0.04,611.000000,,2013-08-22 20:52:00,
2013-08-22 17:03:00,87.0,69.0,-100.00,NNE,20,0.0,0.0,55,0.00,,,0.04,611.000000,,2013-08-22 21:03:00,
2013-08-22 17:05:00,87.0,69.0,-100.00,WSW,240,0.0,0.0,55,0.00,,,0.01,491.000000,,2013-08-22 21:05:00,
2013-08-22 17:44:00,87.0,69.0,-100.00,WSW,240,0.0,0.0,55,0.00,,,0.01,491.000000,,2013-08-22 21:44:00,
2013-08-22 17:54:00,87.0,69.0,-100.00,WSW,240,0.0,0.0,55,0.00,,,0.01,491.000000,,2013-08-22 21:54:00,
2013-08-22 18:42:00,87.0,69.0,-100.00,NNW,334,0.0,0.0,55,0.00,,,0.00,372.000000,,2013-08-22 22:42:00,
2013-08-22 18:53:00,87.0,69.0,-100.00,NNW,334,0.0,0.0,55,0.00,,,0.00,372.000000,,2013-08-22 22:53:00,
2013-08-22 19:03:00,87.0,69.0,-100.00,NNW,334,0.0,0.0,55,0.00,,,0.00,372.000000,,2013-08-22 23:03:00,
2013-08-22 19:42:00,83.0,69.0,-100.00,NW,316,0.0,0.0,63,0.00,,,0.00,194.000000,,2013-08-22 23:42:00,
2013-08-22 19:53:00,83.0,69.0,-100.00,NW,316,0.0,0.0,63,0.00,,,0.00,194.000000,,2013-08-22 23:53:00,
2013-08-22 20:02:00,83.0,69.0,-100.00,NW,316,0.0,0.0,63,0.00,,,0.00,194.000000,,2013-08-23 00:02:00,
2013-08-22 20:42:00,78.0,70.0,-100.00,WNW,300,0.0,0.0,77,0.00,,,0.00,23.000000,,2013-08-23 00:42:00,
2013-08-22 20:52:00,78.0,70.0,-100.00,WNW,300,0.0,0.0,77,0.00,,,0.00,23.000000,,2013-08-23 00:52:00,
2013-08-22 21:02:00,78.0,70.0,-100.00,WNW,300,0.0,0.0,77,0.00,,,0.00,23.000000,,2013-08-23 01:02:00,
2013-08-22 21:42:00,75.0,71.0,-100.00,West,274,0.0,0.0,88,0.00,,,0.00,1.000000,,2013-08-23 01:42:00,
2013-08-22 21:52:00,75.0,71.0,-100.00,West,274,0.0,0.0,88,0.00,,,0.00,1.000000,,2013-08-23 01:52:00,
2013-08-22 22:02:00,75.0,71.0,-100.00,West,274,0.0,0.0,88,0.00,,,0.00,1.000000,,2013-08-23 02:02:00,
2013-08-22 22:43:00,73.0,71.0,-100.00,SW,222,0.0,0.0,94,0.00,,,0.00,0.000000,,2013-08-23 02:43:00,
2013-08-22 22:52:00,73.0,71.0,-100.00,SW,222,0.0,0.0,94,0.00,,,0.00,0.000000,,2013-08-23 02:52:00,
2013-08-22 23:02:00,73.0,71.0,-100.00,SW,222,0.0,0.0,94,0.00,,,0.00,0.000000,,2013-08-23 03:02:00,
2013-08-22 23:44:00,71.0,70.0,-100.00,WSW,238,0.0,0.0,97,0.00,,,0.00,0.000000,,2013-08-23 03:44:00,
2013-08-22 23:55:00,71.0,70.0,-100.00,WSW,238,0.0,0.0,97,0.00,,,0.00,0.000000,,2013-08-23 03:55:00,